Regional Weather Roundup
Issued by NWS

Home | Current Version | Previous Version | Graphics & Text | Print | Product List | Glossary On
Versions: 1 2 3 4 5 6 7 8 9 10 11 12 13 14 15 16 17 18 19 20 21 22 23 24 25 26 27 28 29 30 31 32 33 34 35 36 37 38 39 40 41 42 43 44 45 46 47 48 49 50
000
ASUS43 KOAX 260810
RWRNE

WEATHER ROUNDUP FOR NEBRASKA
NATIONAL WEATHER SERVICE OMAHA NE
300 AM CDT THU MAY 26 2016

NOTES: SATELLITE DATA IS BEING USED TO AUGMENT CLOUD COVER ABOVE
       12000 FEET.
       "FAIR" INDICATES FEW OR NO CLOUDS BELOW 12,000 FEET WITH NO
       SIGNIFICANT WEATHER AND/OR OBSTRUCTIONS TO VISIBILITY.

  * THESE STATIONS DO NOT REPORT WEATHER SUCH AS RAIN...SNOW OR FOG.

NEZ001>004-019>022-054>056-260900-
NEBRASKA PANHANDLE

CITY           SKY/WX    TMP DP  RH WIND       PRES   REMARKS
SCOTTSBLUFF    CLEAR     46  42  86 NW5       29.94S
ALLIANCE       CLOUDY    44  41  89 SW6       29.92R
CHADRON        CLEAR     43  39  86 S3        29.90F
KIMBALL        CLOUDY    46  42  84 W8        30.00S
SIDNEY         CLOUDY    48  44  86 W3        29.97R
$$

NEZ057>060-069>072-079>082-260900-
SOUTHWEST NEBRASKA

CITY           SKY/WX    TMP DP  RH WIND       PRES   REMARKS
NORTH PLATTE   CLEAR     50  48  93 CALM      29.87F
IMPERIAL       CLEAR     52  48  86 W5        29.92S
LEXINGTON      CLEAR     55  50  84 N7        29.86F
MCCOOK         CLEAR     52  49  89 W7        29.89R
OGALLALA       CLOUDY    53  50  91 W6        29.91S
$$

NEZ005>010-023>029-035>040-094-260900-
NORTH CENTRAL NEBRASKA

CITY           SKY/WX    TMP DP  RH WIND       PRES   REMARKS
VALENTINE      PTCLDY    50  46  86 CALM      29.88F
AINSWORTH      CLEAR     52  48  86 CALM      29.89R
BROKEN BOW     MOCLDY    57  50  77 VRB3      29.84F
O`NEILL        PTCLDY    56  51  82 CALM      29.88F
ORD            CLEAR     56  52  86 NW7       29.87S
THEDFORD       CLOUDY    55  49  80 E7        29.89F
$$

NEZ041-046>049-061>064-073>077-083>087-260900-
SOUTH CENTRAL NEBRASKA

CITY           SKY/WX    TMP DP  RH WIND       PRES   REMARKS
GRAND ISLAND   CLEAR     57  53  86 N7        29.85R
AURORA         CLEAR     59  55  85 SE3       29.85S
HASTINGS       CLEAR     57  52  83 CALM      29.84R
HEBRON         CLEAR     58  54  88 CALM      29.83F
HOLDREGE       CLEAR     57  49  77 NE6       29.86R
KEARNEY *      PTCLDY    57  50  77 E7        29.88R
YORK           PTCLDY    59  54  82 N6        29.84F
$$

NEZ011>018-030>034-042>045-260900-
NORTHEAST NEBRASKA

CITY           SKY/WX    TMP DP  RH WIND       PRES   REMARKS
NORFOLK        PTCLDY    55  53  93 W6        29.83F
ALBION         MOCLDY    55  52  88 NW6       29.86F
BLAIR          CLOUDY    62  56  81 E6        29.86R
FREMONT        PTCLDY    59  54  83 CALM      29.83R
TEKAMAH        CLOUDY    60  56  86 N8        29.82R
WAYNE          CLOUDY    59  55  88 W6        29.82F
$$

NEZ050>053-065>068-078-088>093-260900-
SOUTHEAST NEBRASKA

CITY           SKY/WX    TMP DP  RH WIND       PRES   REMARKS
LINCOLN        CLEAR     62  55  77 NW5       29.83F
OMAHA EPPLEY   CLOUDY    64  58  80 E13G23    29.88R
BEATRICE       CLEAR     59  57  91 CALM      29.83F
FALLS CITY     CLEAR     63  61  93 CALM      29.83R
NEBRASKA CITY  CLEAR     66  62  87 NW3       29.83F
PLATTSMOUTH    CLOUDY    64  62  93 N3        29.87R
$$

NEZ044-045-051>053-067-260900-
OMAHA AREA

CITY           SKY/WX    TMP DP  RH WIND       PRES   REMARKS
OMAHA EPPLEY   CLOUDY    64  58  80 E13G23    29.88R
BLAIR          CLOUDY    62  56  81 E6        29.86R
FREMONT        PTCLDY    59  54  83 CALM      29.83R
MILLARD        CLOUDY    63  58  84 E3        29.86R
OFFUTT AFB     PTCLDY    64  60  87 N7        29.86R
PLATTSMOUTH    CLOUDY    64  62  93 N3        29.87R
WAHOO          FAIR      64  53  67 NW6       29.83R
$$




USA.gov is the U.S. government's official web portal to all federal, state and local government web resources and services.